Погода в Ухане

Китай     30°35′29″N   114°18′53″E
темп.,
°C
ветер,
м/с
пор.,
м/с
влажн.,
%
обл.,
%
осадки,
мм/ч
давл.,
гПа
погр.,
м
12 апреля, пн
пн1223:00+15в2291100 0.4 1019222
02:00+14ссв009188 0.7 1018187
05:00+15с128998 0.0 1017253
08:00+15сз1186100 0.0 1018272
11:00+17сз227089 0.0 1018800
14:00+21зсз225588 0.1 10161327
17:00+22з225397 0.0 10151404
20:00+21зсз1157100 0.0 1017746
13 апреля, вт
вт1323:00+19ююз116430 0.0 101863
02:00+18з23728 0.0 1017133
05:00+17ссв117677 0.0 101714
08:00+18св1170100 0.0 1019251
11:00+21св2254100 0.0 1019989
14:00+22в1253100 0.0 10171225
17:00+19ююз3375100 0.5 1016219
20:00+18з2276100 1.3 1018185
14 апреля, ср
ср1423:00+18ююв1280100 0.6 1020176
02:00+17с4583100 0.6 1019314
05:00+16св3685100 0.0 1018261
08:00+16ссв4681100 0.5 1020424
11:00+18св347499 0.3 1019612
14:00+18юв1177100 0.9 1017339
17:00+17ссз1283100 1.3 1016209
20:00+16ююв2288100 2.6 1017251
15 апреля, чт
чт1523:00+16юв2479100 0.2 1017277
02:00+16юв2480100 0.2 1015256
05:00+15ююз1184100 0.0 101549
08:00+16всв1177100 0.0 1016372
11:00+20юз1165100 0.0 1017954
14:00+22зсз3354100 0.1 10151417
17:00+22сз345398 0.3 10151301
20:00+21всв01600 0.3 101713
16 апреля, пт
пт1623:00+18ююз23765 0.0 1018115
02:00+17зюз248171 0.0 1018135
05:00+17с008398 0.0 101716
08:00+18з1176100 0.0 1019187
11:00+22всв015685 0.0 1019704
14:00+25вюв1233100 0.0 10171347
17:00+25ююв3336100 0.0 10161582
20:00+23ююв1148100 0.0 1018216